Muncie, IN (47302)

11:05 PM EDT die 21o April, anno 2018 (GMT -0400)
Ball State University | | Change Station

Elev 968 ft 40.20 °N, 85.41 °W | Updated 8 seconds ago

Serena
Serena
51.2 °F
Feels Like 51.2 °F
N
7.1
Ventus Variabilis Ventus from Inter Austrum et Eurum
Gusts 9.0 mph

Hodie
High -- | Low -- °F
--% Chance of Precip.
Yesterday
High -- | Low -- °F
Precip. -- in
Pressio 30.35 in
Visibilitas 10.0 milia passuum
Clouds Serena
Frigus in quo Ros apparet 28 °F
Umor 41%
Rainfall 0.00 in
Snow Depth Not available.
6:54 AM 8:26 PM
Waxing Crescent, 41% visible
METAR KMIE 220253Z AUTO 09006KT 10SM CLR 10/M02 A3035 RMK AO2 SLP276 T01001017 51005
Pressio 30.35 in
Visibilitas 10.0 milia passuum
Clouds Serena
Frigus in quo Ros apparet 28 °F
Umor 41%
Rainfall 0.00 in
Snow Depth Not available.
6:54 AM 8:26 PM
Waxing Crescent, 41% visible
METAR KMIE 220253Z AUTO 09006KT 10SM CLR 10/M02 A3035 RMK AO2 SLP276 T01001017 51005

Get Severe Weather Alerts

Thanks for signing up!

Be on the lookout for a verification email in your inbox.

You'll start receiving the daily forecast at 6 AM.

×

10-Day Weather Forecast

Almanac

Astronomy

Apr. 21, 2018 Rise Set
Actual Time
Civil Twilight
Nautical Twilight
Astronomical Twilight
Moon
Length Of Visible Light
Length of Day
Tomorrow will be .
, % of the Moon is Illuminated

Today's Extremes

State Highs State Lows

Community

WunderPhotos

Category 6

Welcome to Category 6. This is the collective home for Weather Underground's featured writeups by Dr. Jeff Masters (right), Bob Henson (left), Chris Burt, and other regular contributors.

Nearby

Air Quality

  Air Quality AQ Index Pollutant
Not available.

Snow Depth

Station Depth Elevation

Earthquake Activity

City Distance Mag. Time & Date
Minimum magnitude displayed is 2.5.

Coastal Water Temperatures

Locus Calor

Stations

Nearby Weather Stations

Station Location Temp Frigus Venti Frigus in quo Ros apparet Umor Ventus Precip. Elev Renovata Type
                   

Watches & Warnings

There are currently no watches in effect.